EHI
0 0 0 0 0 0 0 0 0 0 0 0 0 0 0 0 0 0 0 0 0 0 0 0 0 0 0 0 0 0 0 0 0 0 0 0 0 0 0 0 0 0 0 0
0 0 0 0 0 0 0 0 0 0 0 0 0 0 0 0 0 0 0 0 0 0 0 0 0 0 0 0 0 0 0 0 0 0 0 0 0 0 0 0 0 0 0 0
0 0 0 0 0 0 0 0 0 0 0 0 0 0 0 0 0 0 0 0 0 0 0 0 0 0 0 0 0 0 0 0 0 0 0 0 0 0 0 0 0 0 0 0
0 0 0 0 0 0 0 0 0 0 0 0 0 0 0 0 0 0 0 0 0 0 0 0 0 0 0 0 0 0 0 0 0 0 0 0 0 0 0 0 0 0 0 0
0 0 0 0 0 0 0 0 0 0 0 0 0 0 0 0 0 0 0 0 0 0 0 0 0 0 0 0 0 0 0 0 0 0 0 0 0 0 0 0 0 0 0 0
0 0 0 0 0 0 0 0 0 0 0 0 0 0 0 0 0 0 0 0 0 0 0 0 0 0 0 0 0 0 0 0 0 0 0 0 0 0 0 0 0 0 0 0
0 0 0 0 0 0 0 0 0 0 0 0 0 0 0 0 0 0 0 0 0 0 0 0 0 0 0 0 0 0 0 0 0 0 0 0 0 0 0 0 0 0 0 0
0 0 0 0 0 0 0 0 0 0 0 0 0 0 0 0 0 0 0 0 0 0 0 0 0 0 0 0 0 0 0 0 0 0 0 0 0 0 0 0 0 0 0 0
0 0 0 0 0 0 0 0 0 0 0 0 0 0 0 0 0 0 0 0 0 0 0 0 0 0 0 0 0 0 0 0 0 0 0 0 0 0 0 0 0 0 0 0
0 0 0 0 0 0 0 0 0 0 0 0 0 0 0 0 0 0 0 0 0 0 0 0 0 0 0 0 0 0 0 0 0 0 0 0 0 0 0 0 0 0 0 0
0 0 0 0 0 0 0 0 0 0 0 0 0 0 0 0 0 0 0 0 0 0 0 0 0 0 0 0 0 0 0 0 0 0 0 0 0 0 0 0 0 0 0 0
0 0 0 0 0 0 0 0 0 0 0 0 0 0 0 0 0 0 0 0 0 0 0 0 0 0 0 0 0 0 0 0 0 0 0 0 0 0 0 0 0 0 0 0
0 0 0 0 0 0 0 0 0 0 0 0 0 0 0 0 0 0 0 0 0 0 0 0 0 0 0 0 0 0 0 0 0 0 0 0 0 0 0 0 0 0 0 0
0 0 0 0 0 0 0 0 0 0 0 0 0 0 0 0 0 0 0 0 0 0 0 0 0 0 0 0 0 0 0 0 0 0 0 0 0 0 0 0 0 0 0 0
0 0 0 0 0 0 0 0 0 0 0 0 0 0 0 0 0 0 0 0 0 0 0 0 0 0 0 0 0 0 0 0 0 0 0 0 0 0 0 0 0 0 0 0
0 0 0 0 0 0 0 0 0 0 0 0 0 0 0 0 0 0 0 0 0 0 0 0 0 0 0 0 0 0 0 0 0 0 0 0 0 0 0 0 0 0 0 0
0 0 0 0 0 0 0 0 0 0 0 0 0 0 0 0 0 0 0 0 0 0 0 0 0 0 0 0 0 0 0 0 0 0 0 0 0 0 0 0 0 0 0 0
0 0 0 0 0 0 0 0 0 0 0 0 0 0 0 0 0 0 0 0 0 0 0 0 0 0 0 0 0 0 0 0 0 0 0 0 0 0 0 0 0 0 0 0
0 0 0 0 0 0 0 0 0 0 0 0 0 0 0 0 0 0 0 0 0 0 0 0 0 0 0 0 0 0 0 0 0 0 0 0 0 0 0 0 0 0 0 0
0 0 0 0 0 0 0 0 0 0 0 0 0 0 0 0 0 0 0 0 0 0 0 0 0 0 0 0 0 0 0 0 0 0 0 0 0 0 0 0 0 0 0 0
0 0 0 0 0 0 0 0 0 0 0 0 0 0 0 0 0 0 0 0 0 0 0 0 0 0 0 0 0 0 0 0 0 0 0 0 0 0 0 0 0 0 0 0
0 0 0 0 0 0 0 0 0 0 0 0 0 0 0 0 0 0 0 0 0 0 0 0 0 0 0 0 0 0 0 0 0 0 0 0 0 0 0 0 0 0 0 0
0 0 0 0 0 0 0 0 0 0 0 0 0 0 0 0 0 0 0 0 0 0 0 0 0 0 0 0 0 0 0 0 0 0 0 0 0 0 0 0 0 0 0 0
0 0 0 0 0 0 0 0 0 0 0 0 0 0 0 0 0 0 0 0 0 0 0 0 0 0 0 0 0 0 0 0 0 0 0 0 0 0 0 0 0 0 0 0
0 0 0 0 0 0 0 0 0 0 0 0 0 0 0 0 0 0 0 0 0 0 0 0 0 0 0 0 0 0 0 0 0 0 0 0 0 0 0 0 0 0 0 0
0 0 0 0 0 0 0 0 0 0 0 0 0 0 0 0 0 0 0 0 0 0 0 0 0 0 0 0 0 0 0 0 0 0 0 0 0 0 0 0 0 0 0 0
0 0 0 0 0 0 0 0 0 0 0 0 0 0 0 0 0 0 0 0 0 0 0 0 0 0 0 0 0 0 0 0 0 0 0 0 0 0 0 0 0 0 0 0
Wind_Speed
2 2 4 4 6 7 6 7 7 5 5 4 3 3 3 3 4 5 5 4 4 4 3 3 3 3 2 2 2 2 2 2 2 1 1 1 1 1 2 2 3 3 3 4
1 1 2 1 2 5 5 4 4 3 3 2 1 3 3 3 4 4 3 3 3 3 4 3 3 2 2 1 1 2 2 1 1 1 1 1 1 1 2 2 3 3 3 4
1 1 3 2 4 5 4 3 6 7 6 3 3 4 4 4 3 3 3 3 3 2 2 3 2 2 2 1 1 2 1 1 0 1 1 1 1 1 2 2 3 3 4 4
1 2 5 4 2 3 4 2 2 3 3 4 4 3 2 2 3 2 2 2 2 2 2 1 2 2 2 2 2 2 1 1 0 0 1 1 1 2 2 3 3 3 4 4
2 2 2 4 2 0 3 2 1 3 3 3 4 5 3 3 3 2 2 2 2 2 2 2 2 2 3 2 2 2 1 1 1 1 1 1 2 2 3 2 3 3 4 4
2 3 4 4 4 3 3 1 2 3 4 4 4 3 2 1 3 3 4 3 3 3 3 3 2 2 3 2 2 1 1 1 1 1 1 2 2 3 3 3 3 4 4 4
2 2 4 4 5 1 4 4 2 1 2 3 3 3 3 3 3 4 4 4 4 4 3 2 1 2 3 2 1 1 1 1 2 2 1 2 2 2 3 3 3 4 5 5
3 2 5 4 2 2 2 0 2 2 3 4 5 5 5 5 4 4 4 4 4 4 3 3 2 2 2 1 2 2 1 2 2 2 2 2 2 3 3 3 3 4 4 5
3 3 2 2 1 1 1 2 2 2 3 5 5 5 4 4 4 4 4 4 3 3 3 3 3 2 2 2 2 2 2 2 2 3 2 2 2 3 3 3 3 3 4 4
1 1 2 3 3 4 4 3 3 4 4 4 5 5 4 4 3 3 4 3 3 3 4 4 4 3 2 2 2 2 1 2 2 2 3 3 3 2 2 3 3 4 4 4
1 0 2 3 3 3 5 5 6 5 5 4 6 5 4 3 3 2 3 3 3 3 3 3 3 4 3 3 2 2 1 2 2 2 2 3 3 3 3 3 4 5 4 4
3 3 2 1 2 3 5 5 5 5 5 4 4 4 4 3 2 2 2 2 3 3 3 3 3 3 4 4 2 2 2 2 2 2 2 2 3 4 6 6 9 10 9 8
0 1 2 2 3 4 4 4 4 4 4 4 3 3 3 3 2 2 2 2 2 2 2 3 3 3 4 4 3 2 2 3 2 2 3 3 3 3 5 6 8 9 9 10
2 3 3 2 3 4 4 4 5 5 4 4 3 3 3 2 2 2 2 2 1 2 2 2 3 4 4 4 3 3 3 4 3 3 3 3 3 3 3 4 5 5 7 9
4 3 2 2 3 3 3 4 5 4 3 3 3 2 2 2 1 1 1 2 2 2 2 3 3 4 4 4 4 3 3 3 3 3 3 3 3 3 3 4 4 4 4 5
3 3 3 3 3 2 3 3 3 2 1 2 2 1 1 1 1 1 2 1 1 2 3 3 4 4 4 3 4 3 3 6 5 3 3 3 3 3 3 3 3 4 4 4
1 1 1 1 1 1 1 0 1 0 0 1 1 0 1 1 1 2 2 2 2 3 3 3 4 5 4 3 3 3 3 4 7 5 3 3 3 3 3 3 3 4 4 5
0 1 2 2 2 1 1 1 0 0 1 1 1 1 1 0 1 2 2 2 2 3 3 4 4 4 4 3 3 3 3 3 3 3 3 3 3 3 3 3 4 4 4 5
1 1 1 0 0 1 0 1 1 1 1 0 0 1 1 1 2 2 2 2 3 4 4 4 7 5 4 5 5 3 3 3 3 3 3 4 4 3 3 3 3 4 4 4
2 2 1 1 1 0 0 1 1 1 1 1 0 1 1 2 2 2 2 3 3 4 4 5 5 4 4 4 6 3 3 3 3 3 3 3 3 3 3 3 4 4 4 4
2 2 2 2 1 1 1 1 0 1 2 1 1 2 2 3 2 2 2 3 4 4 5 7 5 3 3 4 5 2 2 3 3 3 3 3 3 3 3 3 3 4 4 4
2 2 2 2 1 2 2 1 1 1 2 2 2 2 2 3 3 3 3 4 4 7 5 3 3 5 5 5 2 2 2 3 2 2 2 2 3 3 3 3 3 4 3 4
2 2 2 2 2 2 2 2 2 1 2 2 2 2 3 3 3 3 3 3 3 6 5 3 5 7 7 3 2 2 3 3 3 3 3 2 3 3 3 3 3 3 3 3
2 2 2 2 1 1 2 3 3 2 2 3 3 3 3 2 3 3 3 6 7 7 4 5 7 6 6 2 2 2 2 3 3 3 3 2 3 3 3 3 3 3 3 3
2 2 2 1 2 2 2 2 2 2 2 2 3 3 3 2 3 3 3 3 5 6 4 5 7 7 4 2 2 2 2 3 2 2 2 2 2 3 3 3 3 3 3 3
2 2 2 2 2 2 2 2 2 2 2 2 3 3 2 2 2 3 3 3 4 4 4 3 3 4 3 2 2 2 2 3 3 3 2 2 3 3 3 3 3 3 3 3
2 2 2 2 2 2 2 2 2 3 2 3 3 3 3 2 2 2 2 2 2 3 2 2 2 2 2 2 2 2 2 2 2 2 2 2 2 2 3 3 3 3 2 2
Wind_Direction
252 224 174 187 195 189 188 182 180 201 193 220 206 170 152 131 111 98 92 96 105 109 109 107 103 103 109 118 124 135 142 160 197 217 221 223 239 260 278 280 280 273 278 282
335 170 143 143 208 195 192 178 181 163 244 258 132 108 103 119 124 120 117 111 102 104 112 116 118 115 104 111 130 133 146 173 195 207 232 240 251 268 291 294 295 293 284 282
222 241 92 256 236 200 180 181 175 202 218 160 119 130 153 158 137 138 131 116 116 121 132 138 144 138 130 132 107 112 129 140 187 210 249 265 275 288 282 282 295 296 291 286
131 105 194 241 287 172 157 169 169 165 167 163 160 135 96 109 129 128 117 107 102 99 97 105 109 106 107 91 91 91 85 66 337 285 285 294 284 274 277 285 285 286 289 290
129 167 264 304 328 157 171 249 276 172 169 139 115 83 41 34 77 115 112 103 102 102 96 79 75 87 92 75 69 67 48 9 339 316 301 297 287 281 288 290 292 287 286 290
127 154 215 256 302 306 116 261 306 175 180 166 131 140 229 5 58 67 77 79 76 74 73 62 41 81 91 76 65 43 342 325 328 322 309 290 284 291 298 293 290 292 292 290
148 188 258 285 310 33 150 224 305 162 161 150 150 166 151 104 74 75 76 75 73 73 67 49 33 80 87 70 22 312 329 347 346 341 318 297 301 307 303 304 304 301 299 297
142 175 251 320 38 131 205 356 59 76 94 102 101 99 96 90 81 76 71 68 67 66 48 28 35 75 73 29 331 343 3 358 351 340 330 338 327 317 313 308 304 304 305 306
174 195 286 349 86 31 59 72 51 75 90 109 106 102 92 83 80 73 71 63 59 68 45 22 20 54 61 345 340 355 7 356 341 334 332 326 314 310 314 311 303 304 305 305
113 359 353 26 35 35 48 61 60 85 97 102 108 107 97 89 79 70 62 58 56 57 45 18 10 21 25 347 353 16 9 340 331 330 325 321 315 306 303 302 300 301 302 302
109 289 23 15 23 45 55 61 63 64 72 94 107 103 100 95 86 78 65 48 48 50 38 8 5 7 358 354 11 12 345 326 322 318 308 308 309 297 296 279 286 295 287 287
204 214 178 254 360 59 70 61 62 72 66 63 92 103 94 86 74 69 58 49 44 35 23 359 357 358 352 351 359 353 333 324 316 313 308 306 306 312 312 308 311 310 307 303
191 86 103 87 53 58 70 66 64 72 86 81 75 92 95 87 68 61 48 39 33 18 4 356 355 351 345 345 346 341 318 310 307 313 310 307 304 304 311 321 320 318 318 317
52 76 76 55 59 57 69 68 68 63 62 73 81 81 84 81 68 54 29 5 6 13 1 350 345 335 333 338 340 334 321 311 311 299 295 294 294 296 297 303 312 316 322 324
26 48 108 93 69 60 64 73 72 61 55 49 62 76 81 79 58 20 3 0 8 3 346 340 333 325 329 332 330 324 316 306 301 297 293 291 294 295 295 294 298 307 315 320
35 57 84 91 82 67 67 74 83 65 51 47 50 56 60 58 32 1 352 350 344 326 322 323 317 316 321 322 321 317 309 311 313 305 296 295 294 294 296 300 304 308 309 312
91 86 97 104 87 63 53 79 133 148 16 16 354 23 67 45 15 347 334 327 311 300 304 304 303 310 313 312 307 302 301 302 308 307 299 293 294 296 300 301 301 303 304 310
157 196 191 184 189 193 347 14 49 3 299 298 340 37 41 351 294 301 308 316 318 312 305 299 300 304 306 308 302 292 291 292 296 296 298 300 302 300 302 303 305 306 310 315
43 53 57 119 190 165 211 295 317 323 320 325 341 308 294 288 283 290 301 310 307 303 303 301 309 314 309 306 304 291 289 292 294 293 296 303 310 312 310 307 306 306 308 313
24 26 28 14 8 53 270 302 321 337 321 304 280 292 301 298 291 294 301 293 282 278 287 297 301 299 296 296 302 293 288 287 290 294 299 300 303 306 306 306 307 308 310 310
1 360 2 356 351 355 327 287 265 287 303 300 268 260 275 289 289 282 285 291 294 293 294 302 305 299 298 297 302 292 287 287 289 290 293 296 297 297 299 301 304 306 308 310
337 338 334 333 334 329 325 319 286 280 295 298 294 280 281 291 296 293 276 269 285 301 305 297 295 297 301 302 297 296 295 294 291 289 287 287 289 295 299 302 303 304 308 311
313 313 315 315 305 302 314 314 299 283 280 283 282 277 271 275 279 278 289 290 291 300 305 294 296 303 307 310 305 296 292 291 288 286 285 285 287 291 295 297 297 300 303 310
315 318 312 309 313 319 317 315 313 304 291 288 282 274 266 275 287 277 266 287 301 305 303 300 308 312 316 313 301 293 289 285 281 280 282 283 284 286 287 290 293 298 305 312
305 305 307 314 312 299 295 308 320 318 310 301 295 289 276 260 261 277 283 283 293 306 307 310 316 319 319 308 298 292 287 282 280 279 278 282 285 288 289 290 294 300 304 306
300 300 293 280 270 272 282 290 293 293 297 300 302 302 297 285 273 276 284 288 289 302 308 307 309 312 311 309 304 299 291 293 296 292 288 284 283 285 289 294 296 297 299 302
304 302 303 307 303 287 280 276 276 282 284 283 292 297 297 294 290 289 290 295 300 304 305 304 302 300 300 300 298 296 292 287 285 285 284 279 279 280 287 291 292 295 298 303